2023/09/10 00:00:00, 0.0,20.9
2023/09/10 00:10:00, 0.0,20.5
2023/09/10 00:20:00, 0.0,20.3
2023/09/10 00:30:00, 0.0,20.5
2023/09/10 00:40:00, 0.0,20.5
2023/09/10 00:50:00, 0.0,20.5
2023/09/10 01:00:00, 0.0,20.6
2023/09/10 01:10:00, 0.0,20.5
2023/09/10 01:20:00, 0.0,20.5
2023/09/10 01:30:00, 0.0,20.5
2023/09/10 01:40:00, 0.0,20.4
2023/09/10 01:50:00, 0.0,20.3
2023/09/10 02:00:00, 0.0,20.1
2023/09/10 02:10:00, 3.6,20.1
2023/09/10 02:20:00, 0.0,20.0
2023/09/10 02:30:00, 0.0,20.0
2023/09/10 02:40:00, 0.0,19.9
2023/09/10 02:50:00, 0.0,19.8
2023/09/10 03:00:00, 0.0,19.7
2023/09/10 03:10:00, 0.0,19.7
2023/09/10 03:20:00, 0.0,19.5
2023/09/10 03:30:00, 0.6,19.7
2023/09/10 03:40:00,16.7,19.6
2023/09/10 03:50:00,18.4,19.7
2023/09/10 04:00:00,18.5,19.7
2023/09/10 04:10:00,18.4,19.6
2023/09/10 04:20:00,18.5,19.7
2023/09/10 04:30:00,18.2,19.7
2023/09/10 04:40:00,16.6,19.9
2023/09/10 04:50:00, 1.5,19.9
2023/09/10 05:00:00, 0.0,19.7
2023/09/10 05:10:00, 0.0,19.7
2023/09/10 05:20:00, 0.0,19.8
2023/09/10 05:30:00, 0.0,19.8
2023/09/10 05:40:00, 1.4,19.7
2023/09/10 05:50:00, 7.3,19.7
2023/09/10 06:00:00, 9.9,19.9
2023/09/10 06:10:00, 6.2,19.7
2023/09/10 06:20:00, 1.5,20.0
2023/09/10 06:30:00, 0.0,20.2
2023/09/10 06:40:00,14.4,20.5
2023/09/10 06:50:00,18.0,20.7
2023/09/10 07:00:00,18.0,20.9
2023/09/10 07:10:00,18.8,21.0
2023/09/10 07:20:00,19.0,21.0
2023/09/10 07:30:00,19.0,21.4
2023/09/10 07:40:00,18.9,22.3
2023/09/10 07:50:00,18.7,22.4
2023/09/10 08:00:00,18.4,22.8
2023/09/10 08:10:00,17.5,23.5
2023/09/10 08:20:00,16.5,24.1
2023/09/10 08:30:00, 0.0,23.9
2023/09/10 08:40:00, 0.0,24.0
2023/09/10 08:50:00, 3.9,24.5
2023/09/10 09:00:00, 0.7,24.7
2023/09/10 09:10:00, 0.0,24.7
2023/09/10 09:20:00, 0.0,25.7
2023/09/10 09:30:00, 1.0,26.9
2023/09/10 09:40:00, 0.1,27.9
2023/09/10 09:50:00, 0.0,27.6
2023/09/10 10:00:00, 0.0,27.5
2023/09/10 10:10:00, 0.0,27.9
2023/09/10 10:20:00, 0.0,29.1
2023/09/10 10:30:00, 0.0,30.0
2023/09/10 10:40:00, 0.0,30.3
2023/09/10 10:50:00, 0.0,30.1
2023/09/10 11:00:00, 0.0,31.0
2023/09/10 11:10:00, 0.0,31.2
2023/09/10 11:20:00, 0.0,31.6
2023/09/10 11:30:00, 0.0,31.8
2023/09/10 11:40:00, 0.0,30.6
2023/09/10 11:50:00, 0.0,30.3
2023/09/10 12:00:00, 0.0,30.7
2023/09/10 12:10:00, 0.0,30.2
2023/09/10 12:20:00, 0.0,30.1
2023/09/10 12:30:00, 0.0,30.3
2023/09/10 12:40:00, 3.3,29.1
2023/09/10 12:50:00, 9.6,30.0
2023/09/10 13:00:00, 0.0,30.0
2023/09/10 13:10:00, 0.0,29.8
2023/09/10 13:20:00, 0.0,30.3
2023/09/10 13:30:00, 6.6,30.9
2023/09/10 13:40:00,12.0,30.1
2023/09/10 13:50:00,15.5,31.1
2023/09/10 14:00:00, 8.8,31.8
2023/09/10 14:10:00,13.4,31.6
2023/09/10 14:20:00,18.9,30.9
2023/09/10 14:30:00, 6.4,31.6
2023/09/10 14:40:00, 5.8,33.0
2023/09/10 14:50:00, 0.5,33.0
2023/09/10 15:00:00, 0.2,30.9
2023/09/10 15:10:00,---,29.5
2023/09/10 15:20:00,23.1,27.8
2023/09/10 15:30:00,20.8,25.4
2023/09/10 15:40:00,21.7,24.9
2023/09/10 15:50:00,22.5,24.7
2023/09/10 16:00:00,23.1,24.7
2023/09/10 16:10:00,22.8,24.3
2023/09/10 16:20:00,22.9,24.3
2023/09/10 16:30:00,22.6,24.3
2023/09/10 16:40:00,22.5,24.3
2023/09/10 16:50:00,22.7,24.1
2023/09/10 17:00:00,22.3,24.2
2023/09/10 17:10:00,22.3,24.2
2023/09/10 17:20:00,22.3,24.2
2023/09/10 17:30:00,22.3,24.1
2023/09/10 17:40:00,22.1,24.0
2023/09/10 17:50:00,21.5,23.9
2023/09/10 18:00:00,21.3,23.7
2023/09/10 18:10:00,21.3,23.8
2023/09/10 18:20:00,21.4,23.7
2023/09/10 18:30:00,10.7,23.7
2023/09/10 18:40:00,14.0,23.2
2023/09/10 18:50:00, 0.0,22.7
2023/09/10 19:00:00, 7.8,22.5
2023/09/10 19:10:00, 7.3,22.4
2023/09/10 19:20:00,20.8,22.4
2023/09/10 19:30:00,20.6,22.2
2023/09/10 19:40:00,20.4,22.0
2023/09/10 19:50:00,16.8,22.1
2023/09/10 20:00:00, 5.0,21.8
2023/09/10 20:10:00, 0.3,22.0
2023/09/10 20:20:00, 0.0,21.9
2023/09/10 20:30:00, 0.0,21.9
2023/09/10 20:40:00, 1.0,21.8
2023/09/10 20:50:00, 0.4,21.8
2023/09/10 21:00:00, 0.0,21.5
2023/09/10 21:10:00, 0.0,21.6
2023/09/10 21:20:00, 0.0,21.5
2023/09/10 21:30:00, 0.0,21.4
2023/09/10 21:40:00, 0.0,21.4
2023/09/10 21:50:00, 0.0,21.5
2023/09/10 22:00:00, 0.0,21.4
2023/09/10 22:10:00, 0.0,21.4
2023/09/10 22:20:00, 0.0,21.3
2023/09/10 22:30:00, 0.0,21.2
2023/09/10 22:40:00, 1.6,21.2
2023/09/10 22:50:00, 5.8,21.2
2023/09/10 23:00:00, 7.1,21.4
2023/09/10 23:10:00, 7.4,21.2
2023/09/10 23:20:00, 9.5,21.1
2023/09/10 23:30:00,13.6,21.0
2023/09/10 23:40:00,11.1,20.7
2023/09/10 23:50:00,13.6,20.8
